Location: Unspecified
(17.6330°N, 0.0000°E)
Time: 04:39:19
(UTC+00:00)

S-56A Canister/Altair - Pass Details

Date: 28 June 2019
Orbit: 633 x 2499 km, 38.9° (Epoch: 13 October)

Event Time Altitude Azimuth Distance (km) Brightness Sun altitude
Rises 12:03:41 0° 236° (SW) 6,166 12.1 84.4°
Reaches altitude 10° 12:07:46 10° 237° (WSW) 5,151 11.9 84.3°
Maximum altitude 12:22:46 77° 323° (NW) 2,233 12.9 82.7°
Drops below altitude 10° 12:34:03 10° 49° (NE) 3,990 11.3 80.8°
Sets 12:36:49 0° 51° (NE) 4,755 11.6 80.3°
